Location: ?????????
(41.2393°N, 22.9479°E)
Time: 04:47:26
(UTC+00:00)

ATLAS 2AS CENTAUR R/B - Pass Details

Date: 17 November 2025
Orbit: 1047 x 1163 km, 63.7° (Epoch: 09 December)

Event Time Altitude Azimuth Distance (km) Brightness Sun altitude
Rises 16:28:43 0° 328° (NNW) 3,851 5.9 -15.3°
Reaches altitude 10° 16:32:22 10° 347° (NNW) 2,880 5.0 -16.0°
Maximum altitude 16:36:56 19° 29° (NNE) 2,295 4.1 -16.8°
Enters shadow 16:38:09 18° 43° (NE) 2,339 4.0 -17.1°
